When you browse on this site, cookies collect data to enhance your experience and personalize the content and advertising you see.
Visit our Privacy Policy to learn more. By continuing to use the site, you agree to this use of cookies and data.
  • In Hungary
  • List of Countries
  • For 7 days
  • Water Temperature
  • Weather Map
  • News
  • Weather Widgets
  • user-avatar
    Login

    Hourly Weather Squinzano

    Today, 12 November, Tuesday

    Time Temperature Precipitation Wind Pressure Humidity
    00:00 +16°C° 0.5 mm 6 mps 751 mmHg 72%
    01:00 +16°C° 0.5 mm 7 mps 750 mmHg 74%
    02:00 +17°C° 0.3 mm 8 mps 749 mmHg 72%
    03:00 +18°C° 0.3 mm 9 mps 748 mmHg 70%
    04:00 +19°C° 0.3 mm 11 mps 747 mmHg 68%
    05:00 +19°C° 0 mm 13 mps 746 mmHg 67%
    06:00 +20°C° 0 mm 14 mps 745 mmHg 66%
    07:00 +20°C° 0 mm 16 mps 745 mmHg 66%
    08:00 +20°C° 1.9 mm 15 mps 745 mmHg 70%
    09:00 +19°C° 1.9 mm 14 mps 745 mmHg 74%
    10:00 +18°C° 1.9 mm 14 mps 746 mmHg 78%
    11:00 +18°C° 3.9 mm 14 mps 746 mmHg 75%
    12:00 +17°C° 3.9 mm 15 mps 746 mmHg 72%
    13:00 +17°C° 3.9 mm 15 mps 747 mmHg 70%
    14:00 +17°C° 0.1 mm 14 mps 747 mmHg 69%
    15:00 +17°C° 0.1 mm 13 mps 747 mmHg 67%
    16:00 +17°C° 0.1 mm 12 mps 748 mmHg 66%
    17:00 +16°C° 0 mm 11 mps 748 mmHg 67%
    18:00 +16°C° 0 mm 11 mps 748 mmHg 67%
    19:00 +16°C° 0 mm 11 mps 748 mmHg 68%
    20:00 +16°C° 0.1 mm 11 mps 748 mmHg 68%
    21:00 +16°C° 0.1 mm 11 mps 748 mmHg 69%
    22:00 +16°C° 0.1 mm 11 mps 747 mmHg 69%
    23:00 +16°C° 0.2 mm 11 mps 747 mmHg 68%

    Tomorrow, 13 November, Wednesday

    Time Temperature Precipitation Wind Pressure Humidity
    00:00 +15°C° 0.2 mm 12 mps 747 mmHg 66%
    01:00 +15°C° 0.2 mm 12 mps 746 mmHg 65%
    02:00 +15°C° 0.6 mm 13 mps 746 mmHg 67%
    03:00 +17°C° 0.6 mm 14 mps 745 mmHg 70%
    04:00 +17°C° 0.6 mm 14 mps 745 mmHg 72%
    05:00 +17°C° 0.2 mm 14 mps 745 mmHg 71%
    06:00 +17°C° 0.2 mm 14 mps 745 mmHg 70%
    07:00 +17°C° 0.2 mm 14 mps 745 mmHg 69%
    08:00 +18°C° 0.2 mm 14 mps 745 mmHg 69%
    09:00 +18°C° 0.2 mm 14 mps 746 mmHg 68%
    10:00 +19°C° 0.2 mm 13 mps 747 mmHg 67%
    11:00 +19°C° 0.3 mm 12 mps 747 mmHg 65%
    12:00 +21°C° 0.3 mm 11 mps 747 mmHg 64%
    13:00 +21°C° 0.3 mm 10 mps 748 mmHg 62%
    14:00 +19°C° 0.2 mm 9 mps 748 mmHg 64%
    15:00 +20°C° 0.2 mm 8 mps 748 mmHg 67%
    16:00 +18°C° 0.2 mm 7 mps 748 mmHg 69%
    17:00 +18°C° 0.1 mm 7 mps 748 mmHg 72%
    18:00 +17°C° 0.1 mm 7 mps 749 mmHg 74%
    19:00 +17°C° 0.1 mm 6 mps 749 mmHg 76%
    20:00 +16°C° 0.3 mm 6 mps 749 mmHg 77%
    21:00 +16°C° 0.3 mm 6 mps 750 mmHg 78%
    22:00 +16°C° 0.3 mm 6 mps 750 mmHg 79%
    23:00 +16°C° 0 mm 5 mps 750 mmHg 77%

    Day after tomorrow, 14 November, Thursday

    Time Temperature Precipitation Wind Pressure Humidity
    00:00 +15°C° 0 mm 5 mps 750 mmHg 75%
    01:00 +15°C° 0 mm 4 mps 750 mmHg 73%
    02:00 +16°C° 0 mm 3 mps 750 mmHg 73%
    03:00 +15°C° 0 mm 2 mps 750 mmHg 74%
    04:00 +15°C° 0 mm 2 mps 750 mmHg 74%
    05:00 +15°C° 0 mm 1 mps 750 mmHg 73%
    06:00 +15°C° 0 mm 1 mps 750 mmHg 73%
    07:00 +15°C° 0 mm 1 mps 751 mmHg 72%
    08:00 +16°C° 0 mm 2 mps 751 mmHg 67%
    09:00 +17°C° 0 mm 2 mps 751 mmHg 62%
    10:00 +19°C° 0 mm 3 mps 751 mmHg 56%
    11:00 +19°C° 0 mm 3 mps 751 mmHg 56%
    12:00 +20°C° 0 mm 4 mps 751 mmHg 56%
    13:00 +20°C° 0 mm 5 mps 751 mmHg 56%
    14:00 +20°C° 0 mm 5 mps 751 mmHg 59%
    15:00 +19°C° 0 mm 5 mps 751 mmHg 62%
    16:00 +19°C° 0 mm 5 mps 751 mmHg 65%
    17:00 +17°C° 0 mm 5 mps 751 mmHg 68%
    18:00 +16°C° 0 mm 5 mps 751 mmHg 70%
    19:00 +16°C° 0 mm 5 mps 752 mmHg 73%
    20:00 +16°C° 0 mm 5 mps 752 mmHg 74%
    21:00 +16°C° 0 mm 5 mps 752 mmHg 75%
    22:00 +15°C° 0 mm 4 mps 752 mmHg 76%
    23:00 +15°C° 0.1 mm 5 mps 753 mmHg 78%

    15 November, Friday

    Time Temperature Precipitation Wind Pressure Humidity
    00:00 +15°C° 0.1 mm 5 mps 753 mmHg 79%
    01:00 +15°C° 0.1 mm 5 mps 753 mmHg 81%
    02:00 +15°C° 0 mm 5 mps 753 mmHg 81%
    03:00 +15°C° 0 mm 5 mps 753 mmHg 81%
    04:00 +15°C° 0 mm 5 mps 753 mmHg 81%
    05:00 +15°C° 0 mm 5 mps 753 mmHg 81%
    06:00 +15°C° 0 mm 5 mps 754 mmHg 82%
    07:00 +15°C° 0 mm 5 mps 754 mmHg 83%
    08:00 +16°C° 0 mm 6 mps 754 mmHg 78%
    09:00 +18°C° 0 mm 7 mps 755 mmHg 73%
    10:00 +20°C° 0 mm 8 mps 755 mmHg 68%
    11:00 +20°C° 0 mm 8 mps 755 mmHg 66%
    12:00 +19°C° 0 mm 9 mps 755 mmHg 63%
    13:00 +19°C° 0 mm 9 mps 755 mmHg 61%
    14:00 +19°C° 0 mm 9 mps 755 mmHg 63%
    15:00 +19°C° 0 mm 9 mps 755 mmHg 66%
    16:00 +19°C° 0 mm 9 mps 755 mmHg 68%
    17:00 +18°C° 0 mm 9 mps 755 mmHg 69%
    18:00 +18°C° 0 mm 9 mps 755 mmHg 71%
    19:00 +18°C° 0 mm 9 mps 756 mmHg 72%
    20:00 +18°C° 0.1 mm 9 mps 756 mmHg 73%
    21:00 +18°C° 0.1 mm 9 mps 756 mmHg 73%
    22:00 +18°C° 0.1 mm 8 mps 756 mmHg 73%
    23:00 +18°C° 0 mm 8 mps 756 mmHg 74%

    16 November, Saturday

    Time Temperature Precipitation Wind Pressure Humidity
    00:00 +18°C° 0 mm 8 mps 757 mmHg 74%
    01:00 +18°C° 0 mm 8 mps 757 mmHg 75%
    02:00 +18°C° 0 mm 8 mps 756 mmHg 74%
    03:00 +18°C° 0 mm 8 mps 756 mmHg 74%
    04:00 +18°C° 0 mm 7 mps 756 mmHg 74%
    05:00 +18°C° 0 mm 7 mps 756 mmHg 75%
    06:00 +17°C° 0 mm 7 mps 756 mmHg 76%
    07:00 +17°C° 0 mm 7 mps 756 mmHg 77%
    08:00 +18°C° 0 mm 8 mps 756 mmHg 73%
    09:00 +19°C° 0 mm 9 mps 756 mmHg 68%
    10:00 +21°C° 0 mm 10 mps 756 mmHg 64%
    11:00 +21°C° 0.1 mm 10 mps 756 mmHg 62%
    12:00 +21°C° 0.1 mm 10 mps 756 mmHg 60%
    13:00 +22°C° 0.1 mm 10 mps 755 mmHg 58%
    14:00 +21°C° 0 mm 10 mps 755 mmHg 61%
    15:00 +21°C° 0 mm 10 mps 755 mmHg 64%
    16:00 +19°C° 0 mm 9 mps 755 mmHg 67%
    17:00 +19°C° 0 mm 9 mps 755 mmHg 69%
    18:00 +18°C° 0 mm 9 mps 755 mmHg 71%
    19:00 +18°C° 0 mm 9 mps 755 mmHg 72%
    20:00 +18°C° 0 mm 9 mps 755 mmHg 73%
    21:00 +18°C° 0 mm 10 mps 755 mmHg 74%
    22:00 +18°C° 0 mm 10 mps 755 mmHg 75%
    23:00 +18°C° 0 mm 10 mps 754 mmHg 75%

    17 November, Sunday

    Time Temperature Precipitation Wind Pressure Humidity
    00:00 +18°C° 0 mm 10 mps 754 mmHg 74%
    01:00 +18°C° 0 mm 11 mps 754 mmHg 74%
    02:00 +18°C° 0.1 mm 11 mps 754 mmHg 74%
    03:00 +18°C° 0.1 mm 11 mps 753 mmHg 75%
    04:00 +18°C° 0.1 mm 11 mps 753 mmHg 75%
    05:00 +18°C° 0.1 mm 11 mps 753 mmHg 75%
    06:00 +18°C° 0.1 mm 11 mps 753 mmHg 75%
    07:00 +18°C° 0.1 mm 11 mps 753 mmHg 74%
    08:00 +19°C° 0.1 mm 12 mps 753 mmHg 72%
    09:00 +19°C° 0.1 mm 12 mps 753 mmHg 69%
    10:00 +20°C° 0.1 mm 13 mps 753 mmHg 66%
    11:00 +20°C° 0.5 mm 13 mps 753 mmHg 65%
    12:00 +20°C° 0.5 mm 13 mps 753 mmHg 64%
    13:00 +20°C° 0.5 mm 13 mps 753 mmHg 64%
    14:00 +18°C° 3.7 mm 11 mps 753 mmHg 69%
    15:00 +15°C° 3.7 mm 9 mps 753 mmHg 74%
    16:00 +12°C° 3.7 mm 7 mps 753 mmHg 78%
    17:00 +13°C° 1.2 mm 6 mps 754 mmHg 76%
    18:00 +14°C° 1.2 mm 4 mps 754 mmHg 74%
    19:00 +14°C° 1.2 mm 3 mps 754 mmHg 71%
    20:00 +15°C° 0 mm 2 mps 755 mmHg 70%
    21:00 +14°C° 0 mm 2 mps 756 mmHg 69%
    22:00 +14°C° 0 mm 2 mps 756 mmHg 68%
    23:00 +14°C° 0 mm 2 mps 757 mmHg 68%
    Show more